Temp
-6 -6 -6 -6 -6 -6 -8 -8 -7 -7 -7 -7 -7 -7 -8 -8 -8 -9 -9 -9 -8 -9 -9 -9 -9 -9 -10 -10 -11 -11 -11 -11 -10 -10 -10 -11 -11 -11 -11 -11 -10 -11 -11 -11 -11 -11 -11 -11 -11
-6 -6 -6 -6 -6 -8 -7 -7 -7 -7 -7 -7 -7 -7 -8 -8 -8 -8 -8 -8 -8 -8 -9 -9 -9 -9 -9 -10 -10 -11 -11 -11 -11 -11 -11 -11 -11 -11 -11 -11 -11 -11 -11 -11 -11 -11 -11 -11 -11
-6 -6 -6 -6 -6 -8 -8 -7 -7 -7 -7 -7 -7 -7 -7 -8 -8 -8 -8 -8 -8 -8 -8 -8 -8 -9 -9 -9 -10 -10 -10 -10 -11 -11 -11 -11 -11 -11 -11 -11 -11 -11 -11 -11 -11 -11 -11 -11 -11
-6 -6 -6 -7 -7 -8 -7 -6 -7 -7 -7 -7 -7 -7 -8 -8 -8 -8 -8 -8 -8 -8 -8 -8 -8 -9 -9 -10 -11 -11 -10 -11 -11 -11 -11 -11 -11 -11 -11 -11 -11 -11 -11 -11 -11 -11 -11 -11 -11
-7 -7 -7 -7 -7 -7 -7 -7 -7 -7 -7 -7 -8 -7 -8 -8 -8 -8 -8 -8 -8 -8 -9 -9 -9 -9 -9 -10 -10 -10 -10 -10 -11 -11 -11 -11 -11 -11 -11 -12 -11 -11 -11 -11 -11 -11 -11 -11 -11
-7 -7 -7 -7 -9 -7 -7 -7 -7 -7 -7 -7 -7 -7 -8 -8 -8 -8 -8 -8 -9 -9 -9 -9 -9 -9 -9 -10 -10 -11 -11 -11 -11 -12 -12 -12 -12 -12 -12 -12 -12 -11 -11 -11 -11 -11 -11 -11 -11
-7 -7 -7 -7 -7 -7 -7 -7 -7 -7 -7 -8 -7 -8 -8 -8 -8 -8 -8 -9 -9 -9 -9 -9 -9 -9 -9 -10 -10 -11 -11 -12 -12 -12 -12 -12 -12 -11 -11 -11 -11 -11 -11 -11 -11 -11 -11 -11 -11
-7 -7 -7 -7 -7 -7 -7 -7 -7 -7 -7 -7 -8 -8 -8 -9 -9 -9 -9 -9 -9 -9 -9 -10 -10 -10 -10 -10 -11 -11 -11 -12 -12 -12 -12 -11 -11 -11 -11 -11 -11 -11 -11 -11 -11 -11 -11 -11 -11
-8 -7 -8 -8 -7 -7 -7 -7 -7 -7 -7 -8 -8 -8 -8 -8 -9 -9 -9 -9 -9 -9 -10 -10 -10 -10 -10 -11 -11 -11 -11 -12 -12 -12 -12 -11 -11 -11 -11 -11 -11 -11 -11 -11 -11 -11 -11 -11 -11
-7 -8 -8 -7 -7 -7 -7 -7 -7 -7 -7 -8 -8 -8 -9 -9 -9 -9 -10 -10 -9 -9 -10 -10 -10 -10 -10 -11 -11 -11 -11 -11 -12 -12 -12 -12 -11 -11 -11 -11 -11 -11 -11 -11 -11 -11 -11 -11 -11
-7 -7 -8 -7 -7 -7 -7 -7 -7 -7 -7 -8 -8 -8 -8 -9 -9 -9 -10 -10 -10 -10 -10 -11 -11 -11 -11 -11 -11 -11 -11 -11 -12 -12 -12 -12 -11 -11 -11 -11 -11 -11 -11 -11 -11 -11 -11 -11 -11
-8 -7 -8 -8 -7 -7 -7 -7 -7 -8 -8 -8 -8 -8 -8 -9 -9 -10 -10 -10 -10 -10 -11 -11 -11 -11 -11 -11 -11 -12 -12 -12 -12 -12 -12 -12 -11 -11 -11 -11 -11 -11 -11 -11 -11 -11 -11 -11 -11
-8 -8 -8 -8 -8 -8 -8 -8 -8 -8 -8 -8 -8 -8 -9 -9 -9 -10 -10 -10 -10 -10 -11 -11 -11 -11 -12 -11 -11 -12 -12 -12 -12 -12 -12 -12 -11 -11 -11 -11 -11 -11 -11 -11 -11 -11 -11 -11 -11
-8 -8 -8 -8 -8 -8 -8 -8 -8 -8 -8 -8 -8 -9 -9 -9 -10 -10 -10 -10 -10 -11 -11 -11 -11 -12 -12 -11 -11 -12 -12 -12 -12 -12 -12 -12 -11 -11 -11 -11 -11 -11 -11 -11 -11 -11 -11 -11 -11
-9 -9 -8 -8 -9 -9 -9 -8 -9 -9 -9 -9 -9 -9 -9 -9 -10 -10 -10 -10 -11 -11 -11 -11 -12 -12 -11 -12 -11 -12 -12 -12 -12 -12 -12 -12 -12 -12 -11 -11 -11 -11 -11 -11 -11 -11 -11 -11 -11
-9 -9 -9 -9 -9 -9 -9 -8 -9 -9 -9 -9 -9 -9 -9 -9 -10 -10 -10 -11 -11 -11 -11 -11 -11 -11 -12 -12 -12 -12 -12 -12 -12 -12 -12 -12 -12 -12 -12 -11 -11 -11 -11 -12 -12 -12 -12 -12 -12
-10 -9 -10 -10 -10 -9 -9 -9 -10 -10 -10 -9 -9 -10 -9 -10 -10 -10 -10 -11 -11 -11 -11 -11 -12 -12 -12 -12 -12 -12 -13 -12 -12 -12 -12 -12 -12 -11 -11 -11 -11 -12 -12 -12 -12 -12 -12 -12 -12
-11 -12 -10 -10 -11 -10 -10 -9 -10 -11 -10 -10 -10 -10 -10 -10 -10 -11 -11 -11 -11 -11 -12 -12 -12 -12 -12 -12 -12 -13 -13 -12 -12 -12 -12 -12 -12 -12 -12 -12 -12 -12 -12 -12 -12 -12 -12 -12 -12
-11 -11 -11 -12 -12 -11 -10 -9 -10 -11 -11 -10 -10 -11 -11 -11 -11 -11 -11 -11 -12 -12 -12 -12 -12 -12 -12 -12 -12 -13 -13 -12 -13 -12 -12 -12 -12 -12 -12 -12 -12 -12 -12 -12 -12 -12 -12 -12 -13
-12 -12 -12 -12 -12 -11 -10 -9 -10 -10 -11 -11 -11 -11 -12 -12 -12 -12 -12 -12 -12 -12 -12 -12 -12 -13 -13 -13 -13 -13 -13 -13 -13 -13 -12 -12 -13 -12 -12 -12 -12 -12 -12 -12 -12 -12 -12 -12 -13
-13 -13 -13 -13 -12 -11 -11 -10 -11 -11 -11 -12 -11 -11 -12 -12 -12 -12 -11 -12 -12 -13 -13 -13 -13 -13 -13 -13 -13 -13 -13 -13 -13 -13 -13 -13 -13 -13 -13 -13 -12 -12 -12 -13 -13 -13 -13 -13 -13
-13 -14 -13 -13 -13 -12 -13 -9 -11 -11 -12 -12 -12 -12 -13 -12 -12 -12 -11 -12 -12 -12 -12 -13 -13 -13 -13 -13 -13 -13 -13 -14 -14 -13 -13 -13 -14 -14 -13 -13 -13 -13 -13 -13 -13 -13 -13 -13 -13
-13 -14 -14 -13 -13 -13 -12 -12 -11 -12 -12 -13 -13 -12 -12 -12 -12 -12 -12 -11 -12 -13 -12 -13 -13 -13 -13 -13 -13 -13 -14 -14 -14 -14 -14 -14 -14 -14 -14 -14 -13 -13 -13 -13 -14 -14 -14 -14 -14
-14 -14 -14 -14 -14 -13 -13 -13 -11 -14 -13 -13 -13 -12 -12 -12 -12 -13 -13 -12 -12 -12 -12 -13 -13 -13 -13 -14 -13 -14 -14 -15 -14 -14 -15 -15 -14 -14 -14 -14 -14 -14 -14 -14 -14 -14 -14 -14 -14
-15 -15 -15 -15 -15 -13 -15 -15 -13 -14 -14 -13 -13 -14 -14 -13 -13 -13 -13 -12 -12 -12 -12 -13 -13 -13 -13 -14 -14 -14 -15 -15 -15 -15 -15 -15 -15 -15 -15 -15 -14 -14 -14 -15 -15 -15 -15 -15 -15
-15 -15 -15 -16 -16 -16 -15 -14 -14 -15 -14 -14 -13 -14 -15 -15 -14 -14 -14 -14 -13 -12 -12 -13 -13 -13 -13 -14 -14 -15 -16 -16 -15 -15 -15 -15 -15 -15 -15 -15 -15 -15 -15 -16 -15 -16 -16 -16 -16
-16 -17 -17 -17 -16 -17 -16 -15 -17 -16 -16 -15 -15 -14 -14 -14 -15 -15 -16 -15 -15 -14 -13 -13 -13 -14 -14 -15 -15 -16 -16 -16 -16 -16 -16 -16 -16 -16 -16 -16 -16 -16 -17 -17 -17 -17 -17 -17 -17
-17 -17 -18 -17 -18 -17 -17 -17 -17 -17 -17 -16 -14 -15 -15 -15 -15 -15 -16 -16 -16 -15 -15 -15 -15 -15 -15 -16 -16 -16 -17 -17 -17 -17 -17 -17 -17 -17 -17 -17 -17 -17 -17 -17 -18 -17 -17 -18 -18
-18 -19 -19 -18 -18 -18 -18 -17 -17 -17 -17 -17 -15 -16 -16 -16 -17 -17 -16 -16 -16 -17 -17 -17 -17 -16 -15 -15 -16 -17 -17 -17 -17 -17 -17 -17 -17 -17 -17 -18 -18 -17 -17 -18 -18 -18 -18 -18 -18
-20 -20 -20 -19 -19 -19 -19 -18 -17 -18 -18 -18 -18 -17 -17 -16 -17 -17 -17 -17 -17 -17 -18 -18 -18 -17 -16 -16 -16 -17 -17 -17 -17 -17 -17 -18 -18 -18 -18 -18 -18 -18 -17 -19 -19 -18 -18 -19 -19
Height
5897 5897 5897 5897 5900 5897 5898 5900 5896 5895 5893 5891 5890 5890 5888 5886 5885 5885 5880 5878 5877 5877 5875 5873 5871 5870 5868 5868 5867 5866 5866 5865 5865 5865 5864 5864 5863 5862 5861 5860 5860 5859 5857 5857 5858 5856 5855 5855 5855
5895 5895 5895 5895 5897 5898 5904 5897 5894 5892 5891 5888 5886 5885 5884 5883 5882 5880 5878 5875 5874 5873 5872 5870 5869 5867 5866 5864 5863 5863 5862 5862 5862 5862 5862 5862 5861 5860 5859 5858 5858 5858 5856 5856 5856 5855 5854 5854 5854
5893 5893 5893 5894 5894 5895 5901 5892 5892 5889 5888 5886 5884 5882 5880 5879 5878 5877 5875 5873 5872 5871 5869 5868 5867 5866 5864 5862 5861 5860 5860 5859 5859 5859 5859 5859 5859 5859 5858 5857 5856 5856 5855 5854 5854 5854 5853 5853 5852
5890 5891 5891 5891 5892 5893 5891 5889 5887 5886 5884 5883 5881 5879 5878 5875 5874 5872 5872 5870 5868 5867 5866 5866 5864 5862 5860 5859 5857 5858 5857 5857 5857 5856 5856 5857 5857 5856 5856 5855 5854 5853 5853 5853 5852 5852 5852 5851 5851
5888 5888 5888 5888 5889 5888 5887 5886 5884 5882 5881 5879 5878 5875 5874 5871 5869 5868 5867 5866 5865 5864 5863 5862 5861 5860 5858 5856 5856 5856 5855 5854 5854 5853 5853 5853 5853 5853 5853 5852 5851 5851 5850 5850 5850 5849 5849 5850 5849
5885 5886 5886 5885 5887 5882 5882 5882 5881 5878 5877 5876 5875 5870 5870 5867 5865 5864 5863 5862 5860 5859 5858 5858 5857 5856 5855 5854 5853 5853 5852 5852 5851 5850 5850 5850 5850 5850 5849 5849 5848 5847 5847 5847 5847 5847 5846 5846 5846
5880 5881 5882 5881 5881 5878 5877 5877 5876 5875 5873 5871 5871 5868 5867 5863 5862 5861 5860 5859 5857 5855 5855 5854 5854 5853 5852 5851 5850 5849 5849 5848 5848 5847 5847 5846 5845 5845 5845 5845 5844 5844 5843 5843 5843 5844 5844 5844 5844
5875 5875 5877 5875 5876 5875 5868 5873 5871 5870 5868 5867 5867 5863 5862 5859 5857 5856 5855 5854 5853 5852 5851 5850 5849 5849 5848 5847 5847 5847 5846 5845 5845 5844 5843 5842 5842 5841 5841 5841 5841 5840 5840 5839 5840 5840 5841 5842 5842
5871 5871 5871 5869 5868 5869 5862 5867 5866 5864 5863 5864 5862 5858 5858 5854 5853 5851 5850 5850 5849 5848 5847 5846 5845 5845 5843 5843 5842 5843 5843 5841 5841 5841 5839 5838 5837 5837 5837 5836 5837 5837 5837 5836 5836 5836 5837 5838 5838
5864 5865 5865 5861 5861 5861 5858 5861 5858 5860 5858 5858 5856 5853 5852 5849 5847 5846 5845 5846 5845 5844 5843 5841 5841 5841 5840 5839 5838 5838 5838 5837 5837 5836 5835 5834 5833 5832 5832 5831 5831 5832 5832 5832 5832 5832 5832 5833 5833
5857 5857 5856 5856 5854 5855 5853 5852 5853 5851 5851 5852 5851 5846 5846 5843 5842 5841 5840 5839 5839 5839 5837 5837 5837 5837 5836 5835 5834 5834 5833 5832 5831 5830 5829 5828 5827 5826 5827 5826 5826 5825 5825 5826 5826 5826 5827 5827 5827
5848 5849 5848 5848 5846 5848 5847 5844 5845 5844 5845 5843 5843 5836 5839 5837 5836 5835 5834 5834 5833 5833 5832 5831 5831 5831 5831 5830 5829 5829 5828 5825 5824 5823 5822 5821 5821 5820 5820 5820 5820 5819 5818 5819 5819 5820 5820 5820 5820
5839 5840 5840 5840 5839 5839 5838 5839 5837 5835 5839 5834 5835 5828 5832 5830 5829 5828 5827 5827 5827 5826 5826 5825 5824 5824 5824 5824 5823 5823 5822 5821 5819 5817 5815 5814 5814 5813 5812 5813 5813 5813 5812 5812 5812 5813 5813 5813 5813
5829 5832 5832 5831 5832 5831 5828 5829 5827 5829 5830 5824 5826 5823 5822 5822 5822 5821 5820 5821 5820 5819 5819 5818 5818 5818 5818 5818 5817 5817 5816 5815 5814 5811 5809 5806 5806 5806 5806 5806 5806 5806 5806 5806 5806 5806 5806 5806 5806
5821 5820 5821 5823 5822 5821 5820 5819 5819 5820 5819 5815 5816 5814 5813 5814 5814 5814 5812 5812 5811 5812 5812 5811 5811 5811 5811 5811 5811 5810 5809 5809 5807 5804 5802 5800 5799 5799 5799 5799 5799 5799 5799 5799 5799 5799 5799 5799 5799
5809 5809 5810 5813 5809 5811 5810 5812 5810 5810 5809 5803 5808 5806 5805 5806 5807 5805 5806 5804 5805 5804 5806 5805 5804 5803 5803 5803 5803 5802 5801 5800 5799 5796 5794 5793 5793 5792 5792 5792 5792 5791 5791 5791 5791 5791 5791 5791 5791
5798 5799 5798 5797 5797 5797 5799 5801 5798 5798 5796 5795 5799 5797 5797 5797 5798 5799 5799 5798 5798 5798 5798 5798 5797 5795 5795 5794 5794 5793 5792 5792 5791 5789 5787 5787 5786 5786 5785 5785 5784 5784 5784 5784 5783 5783 5783 5784 5784
5786 5783 5782 5785 5786 5782 5787 5788 5787 5788 5786 5787 5788 5787 5786 5789 5791 5791 5789 5791 5790 5790 5791 5790 5789 5788 5785 5785 5785 5784 5784 5783 5782 5781 5780 5779 5779 5779 5779 5777 5777 5776 5776 5776 5776 5777 5777 5777 5776
5771 5772 5773 5775 5777 5774 5774 5778 5777 5778 5777 5775 5778 5780 5779 5778 5782 5778 5782 5783 5781 5782 5782 5781 5781 5780 5778 5776 5776 5775 5775 5774 5772 5772 5772 5772 5772 5772 5771 5771 5770 5769 5769 5769 5768 5768 5768 5768 5767
5761 5762 5764 5766 5766 5764 5765 5769 5768 5768 5769 5769 5768 5771 5772 5768 5771 5769 5772 5772 5772 5771 5771 5772 5772 5771 5769 5768 5766 5765 5765 5764 5764 5764 5764 5764 5764 5764 5764 5763 5762 5761 5760 5760 5759 5759 5758 5758 5757
5753 5753 5754 5756 5755 5757 5758 5761 5759 5761 5760 5760 5760 5760 5761 5761 5760 5758 5759 5761 5761 5761 5762 5762 5762 5762 5760 5758 5757 5755 5755 5754 5754 5755 5755 5755 5755 5755 5755 5755 5754 5753 5752 5750 5750 5749 5748 5747 5747
5743 5744 5744 5745 5748 5750 5752 5750 5751 5754 5755 5751 5751 5750 5750 5750 5751 5750 5747 5752 5751 5753 5752 5751 5751 5752 5750 5748 5747 5746 5744 5743 5744 5745 5745 5746 5746 5746 5746 5745 5745 5743 5742 5741 5740 5739 5738 5737 5735
5736 5734 5735 5735 5737 5739 5743 5742 5746 5743 5746 5741 5736 5738 5742 5742 5741 5740 5740 5742 5743 5742 5741 5741 5740 5740 5740 5739 5737 5736 5734 5734 5733 5735 5736 5736 5736 5736 5736 5735 5734 5733 5732 5731 5729 5728 5726 5724 5723
5722 5724 5725 5725 5726 5728 5734 5734 5740 5739 5728 5725 5726 5728 5726 5730 5730 5731 5730 5728 5731 5731 5730 5730 5728 5728 5728 5729 5727 5726 5724 5725 5723 5724 5725 5725 5725 5725 5724 5724 5723 5722 5720 5719 5717 5716 5714 5712 5710
5713 5714 5714 5715 5714 5719 5725 5724 5729 5721 5718 5714 5716 5714 5715 5716 5718 5718 5718 5717 5719 5720 5719 5718 5717 5716 5716 5716 5716 5715 5714 5713 5712 5711 5712 5712 5713 5713 5712 5711 5710 5709 5708 5707 5705 5703 5701 5699 5697
5703 5703 5703 5702 5707 5710 5709 5713 5718 5710 5705 5706 5706 5708 5704 5703 5704 5704 5704 5703 5704 5704 5704 5705 5703 5703 5703 5702 5702 5702 5702 5701 5700 5700 5700 5700 5700 5700 5699 5698 5696 5695 5694 5693 5692 5690 5689 5687 5685
5692 5690 5693 5690 5692 5694 5701 5705 5705 5704 5691 5692 5690 5686 5685 5687 5690 5690 5690 5689 5689 5690 5690 5689 5687 5686 5688 5687 5687 5687 5688 5688 5687 5687 5687 5686 5687 5686 5686 5685 5682 5682 5681 5680 5679 5679 5677 5675 5675
5680 5679 5680 5678 5682 5681 5685 5690 5694 5689 5679 5677 5678 5676 5674 5676 5675 5675 5676 5676 5675 5675 5676 5677 5675 5674 5673 5672 5672 5672 5673 5673 5674 5674 5673 5672 5672 5672 5672 5670 5669 5669 5669 5668 5668 5666 5665 5663 5662
5665 5666 5666 5668 5671 5670 5673 5679 5685 5673 5664 5666 5666 5662 5662 5667 5666 5661 5661 5661 5661 5661 5662 5662 5662 5661 5661 5658 5656 5656 5656 5657 5658 5657 5658 5658 5658 5658 5657 5657 5657 5657 5656 5656 5656 5654 5653 5653 5651
5654 5655 5656 5656 5658 5657 5657 5658 5670 5662 5660 5658 5652 5649 5649 5653 5653 5650 5649 5647 5648 5648 5647 5648 5648 5646 5646 5645 5643 5642 5642 5642 5641 5642 5643 5644 5643 5643 5643 5646 5645 5643 5643 5644 5645 5644 5643 5642 5639
Wind_Speed
4 6 9 9 8 7 5 13 11 11 10 9 9 10 15 16 17 17 23 23 23 21 21 21 20 20 19 16 14 17 17 13 19 21 20 19 18 16 15 15 14 13 12 11 11 9 9 9 9
6 7 8 9 9 5 10 19 13 14 13 12 10 12 15 17 19 20 22 24 23 22 21 19 19 19 18 18 18 19 20 18 20 23 21 19 19 18 16 16 16 15 15 15 12 11 9 9 9
9 10 9 9 9 6 9 19 16 16 15 16 15 14 16 18 20 22 23 23 22 21 21 20 18 18 18 18 19 18 23 20 21 24 22 20 20 18 18 17 15 15 14 15 14 13 12 11 10
13 14 12 12 11 12 13 16 18 15 16 17 19 18 18 20 21 22 22 21 21 21 21 22 19 18 18 17 18 20 23 19 25 24 22 21 20 20 19 18 17 16 16 15 16 13 13 13 13
17 18 17 16 16 19 16 19 18 18 18 18 20 21 20 22 24 24 23 22 22 21 22 21 21 20 19 18 20 21 21 23 23 22 22 22 21 21 20 18 18 17 17 15 15 14 13 12 12
21 21 19 20 15 23 20 19 21 22 21 21 21 24 23 24 25 25 25 23 23 23 23 21 21 20 20 20 19 19 20 20 21 22 22 23 22 22 20 20 18 18 17 15 14 15 14 14 13
24 25 22 25 23 28 28 22 23 24 25 23 23 24 23 26 28 26 26 25 25 24 23 22 20 21 21 20 19 19 19 20 21 21 22 23 22 20 19 19 18 17 17 15 15 14 13 13 13
28 28 26 28 28 30 39 25 25 26 27 24 22 26 27 28 28 28 29 27 27 26 25 23 21 20 21 21 19 19 19 21 21 22 22 21 20 19 18 18 18 16 15 13 13 14 13 12 12
32 31 28 29 33 30 40 29 29 28 29 23 25 27 27 32 30 29 29 29 29 28 27 25 23 21 21 21 22 20 21 22 23 24 25 26 26 24 23 22 20 19 18 17 17 18 19 19 18
35 36 33 36 35 35 38 31 33 29 31 27 27 30 28 32 33 31 30 29 30 30 29 28 24 22 22 23 23 23 25 27 28 28 29 28 27 26 26 25 25 26 25 24 22 22 23 24 25
40 38 36 37 38 34 36 38 33 36 33 30 30 34 34 36 35 33 30 30 31 32 32 30 26 24 23 25 25 24 25 28 30 32 32 33 32 30 29 28 28 29 31 29 28 27 28 29 29
42 41 38 37 40 35 38 41 40 39 37 39 33 40 35 37 36 32 32 30 31 33 34 33 31 28 27 28 27 26 26 31 32 34 37 36 34 33 31 30 29 30 31 32 33 33 32 33 32
44 43 41 41 41 41 40 41 43 48 39 43 38 43 38 39 38 34 35 32 32 34 35 35 36 31 30 30 31 29 28 31 35 39 38 39 36 34 33 32 30 30 31 31 30 30 30 30 31
47 45 45 46 44 46 47 45 46 44 40 47 42 43 43 41 39 38 36 34 35 37 37 38 38 36 35 33 34 34 33 33 37 40 40 37 36 34 33 32 31 31 30 30 30 31 31 32 32
49 50 50 49 49 48 50 53 48 43 41 48 45 46 46 43 41 39 39 39 39 39 38 39 41 40 38 35 34 34 34 34 39 40 38 36 35 33 33 32 31 30 32 32 31 32 33 34 35
54 54 56 54 57 54 52 56 48 47 47 53 47 48 47 45 43 43 41 42 42 41 39 41 41 42 39 36 34 36 37 38 40 39 35 33 33 32 33 32 31 31 32 33 33 33 33 34 35
59 58 54 55 58 58 51 49 46 47 50 49 45 48 48 47 48 46 45 44 43 41 38 39 40 41 40 38 40 42 40 43 40 36 33 33 31 32 32 32 33 34 34 34 34 34 35 35 37
50 53 57 54 53 52 42 44 43 46 49 50 48 49 50 48 48 45 45 42 41 38 37 38 40 41 41 42 40 42 44 43 38 35 31 33 32 32 33 33 33 34 34 34 35 36 38 39 40
52 50 48 45 40 42 42 38 40 43 47 49 47 48 51 51 47 51 47 41 39 37 36 38 40 42 43 44 45 44 48 40 35 33 32 30 32 33 34 35 35 35 36 37 37 38 39 40 42
41 41 39 37 37 41 41 38 40 41 43 46 50 46 47 53 51 52 42 39 38 38 37 38 40 42 45 46 49 49 47 41 36 33 32 33 34 36 37 38 38 38 38 39 40 40 41 42 44
39 37 36 37 40 40 40 38 37 38 41 44 46 45 41 43 41 41 40 37 39 38 37 39 40 43 47 50 51 52 46 42 38 34 33 35 36 37 38 39 41 41 41 42 42 42 43 43 45
41 39 41 42 40 41 39 41 38 33 33 41 41 39 39 40 39 39 43 37 39 39 42 44 44 45 49 50 50 48 47 45 41 36 36 38 38 39 40 41 43 43 42 42 43 44 44 45 46
43 44 41 43 41 44 43 45 36 37 33 36 45 47 39 39 38 39 42 41 39 41 45 46 47 47 49 49 49 48 47 47 49 44 41 41 42 43 44 46 46 46 45 45 46 46 47 47 48
45 46 45 47 46 49 46 44 39 27 44 47 49 45 51 44 45 44 43 49 46 47 48 48 48 48 49 50 51 49 50 50 53 51 47 46 47 48 49 51 51 50 48 48 49 49 49 50 51
45 43 44 46 46 51 44 39 41 26 41 53 47 47 47 55 52 50 51 54 52 52 52 50 50 51 51 52 53 52 52 53 56 57 52 51 52 51 52 52 53 51 51 52 53 53 53 52 51
49 50 50 47 45 44 39 44 39 44 58 61 61 57 57 58 55 54 53 54 56 56 56 55 54 53 52 54 55 54 55 56 59 61 57 55 56 56 55 54 56 55 54 54 56 54 51 47 45
47 50 50 51 53 51 51 50 46 44 58 63 64 65 63 59 57 53 47 46 47 50 53 57 56 55 54 57 59 57 58 60 61 61 62 58 59 59 59 59 60 58 55 54 53 52 48 44 39
47 52 51 51 49 52 50 42 39 41 46 61 65 63 59 59 59 58 56 54 54 52 47 47 51 54 54 55 58 60 61 64 64 63 64 62 62 62 62 61 62 58 53 51 48 46 41 36 31
51 52 53 54 53 50 45 37 26 39 47 59 61 60 60 57 56 62 63 61 58 56 54 51 50 53 57 63 65 64 65 66 66 68 67 66 67 65 64 60 57 52 55 46 40 37 35 31 28
48 51 37 44 42 47 50 50 44 54 57 59 60 63 64 61 57 56 55 56 55 54 54 53 52 54 56 60 63 66 68 71 73 70 69 65 65 65 65 53 57 54 49 38 37 29 27 26 31
Wind_Direction
328 337 336 338 332 327 306 267 286 288 288 286 291 291 269 288 291 275 303 307 315 314 309 305 304 302 301 292 287 275 284 288 312 317 320 322 320 321 327 325 320 319 322 327 329 332 336 337 335
292 307 313 318 325 298 327 267 292 287 287 285 286 285 283 290 290 296 299 303 310 316 310 304 303 300 295 285 281 275 281 300 307 313 315 316 314 319 320 321 317 315 316 317 319 318 317 316 315
284 291 291 299 303 279 241 275 276 279 284 285 285 282 287 289 290 289 294 299 308 311 312 310 305 299 296 284 277 271 287 291 296 308 311 311 312 313 312 313 311 306 306 305 306 305 301 300 300
273 276 281 285 284 279 264 280 272 278 276 279 279 280 278 282 282 283 292 294 297 302 309 309 305 299 297 288 290 273 296 281 298 302 306 307 307 305 305 307 304 299 298 297 298 297 300 302 300
273 278 285 290 285 274 283 279 272 278 276 271 277 279 280 282 283 285 293 294 294 298 302 304 303 300 297 289 285 283 285 289 294 298 301 302 302 301 300 298 297 296 294 293 293 293 293 294 296
275 279 285 291 290 281 282 276 273 277 275 271 275 279 281 282 281 286 291 294 292 295 298 301 302 302 298 293 293 292 291 293 295 297 297 296 297 297 296 295 295 291 290 291 289 285 281 277 281
277 281 285 287 284 287 288 287 279 276 276 277 275 277 277 278 282 284 287 289 289 291 293 294 298 299 297 292 290 289 289 290 288 286 287 289 290 292 293 294 289 285 286 289 291 290 284 280 279
277 278 284 285 285 286 287 287 280 276 272 273 272 272 269 272 277 282 284 285 285 287 288 289 292 295 294 293 292 287 285 284 285 286 287 287 289 290 294 290 287 285 280 282 284 286 286 286 280
280 281 283 281 286 288 294 290 284 276 273 269 268 267 269 270 275 277 279 281 283 282 284 286 290 290 291 294 294 291 290 287 286 286 284 284 284 285 283 282 282 279 274 272 275 279 283 284 284
279 280 280 280 287 288 292 290 287 280 278 274 267 267 267 267 267 271 273 274 277 278 280 283 284 285 288 291 291 292 291 289 288 286 284 283 284 284 280 279 278 274 273 270 271 273 277 280 281
277 279 279 283 281 287 290 290 285 287 280 275 267 265 262 261 264 267 269 270 273 275 276 279 280 278 280 284 287 291 292 292 292 292 289 286 281 279 277 277 278 275 267 268 268 268 272 276 279
278 278 278 279 281 283 287 286 290 286 283 279 270 269 266 265 264 264 263 265 267 271 273 276 277 276 277 281 285 289 293 295 297 294 292 289 284 276 272 272 274 275 269 266 265 266 269 271 272
276 277 278 279 280 283 282 284 285 283 283 277 268 271 268 268 267 264 263 262 264 266 267 270 273 274 277 278 283 287 289 293 296 294 289 287 283 276 271 270 271 270 269 265 266 268 270 268 268
275 276 277 278 280 283 283 282 281 282 278 270 267 267 266 266 266 264 265 265 263 263 264 267 270 272 274 276 280 283 284 286 295 294 287 283 279 275 272 271 269 268 268 267 268 270 271 270 270
275 276 279 281 283 283 286 285 282 273 269 268 265 266 266 266 265 265 266 267 265 266 264 267 269 272 274 277 279 282 285 289 294 294 282 279 277 275 272 272 271 269 269 270 272 272 271 271 270
273 276 281 281 278 280 282 286 280 277 272 271 268 266 266 266 264 264 269 270 271 267 269 270 271 274 276 277 275 280 287 290 292 291 276 271 273 273 271 271 271 271 272 273 273 272 271 270 269
278 281 279 277 273 274 278 277 272 269 272 275 272 266 264 264 264 269 274 273 273 273 272 272 273 274 276 274 280 284 286 290 292 286 272 266 270 271 272 272 273 273 274 275 275 275 274 273 273
274 271 274 270 269 275 267 268 266 264 268 266 266 265 266 265 269 272 274 276 275 275 272 271 271 274 274 276 280 282 289 293 290 284 277 266 268 272 273 272 271 272 274 275 276 276 275 276 276
268 267 268 268 266 264 265 264 265 264 263 268 265 266 270 271 269 270 275 275 274 275 271 271 273 274 277 281 282 284 291 291 286 279 276 276 274 276 277 275 273 273 273 275 275 276 277 278 279
265 262 262 259 260 261 262 265 265 265 268 269 270 266 266 271 274 275 274 271 271 269 268 271 272 274 277 279 281 284 288 289 285 278 276 281 281 280 280 279 277 275 274 275 276 277 279 280 281
260 260 259 259 256 263 266 265 265 268 269 268 274 275 270 270 269 270 267 265 263 264 267 269 270 271 274 275 279 281 285 284 282 277 276 282 283 281 280 280 279 277 277 279 279 279 279 281 281
255 256 258 259 262 264 262 269 265 268 274 278 274 266 267 268 269 268 268 264 264 265 266 268 269 271 273 273 275 276 280 281 280 275 276 281 284 283 281 280 278 278 278 279 278 277 277 278 280
257 255 258 261 262 261 261 265 276 278 276 270 264 270 268 271 267 267 269 267 262 260 263 267 271 273 272 270 271 271 275 277 278 278 278 280 282 284 283 281 280 280 279 279 279 280 280 281 283
255 256 256 257 259 259 262 265 267 267 262 265 265 268 273 266 264 265 264 266 267 262 260 264 268 269 270 267 267 266 268 271 274 277 277 278 279 279 280 281 281 279 279 280 280 281 282 284 287
263 263 261 259 261 261 262 262 267 247 260 264 265 268 267 269 267 268 272 269 268 266 264 263 263 265 266 262 261 261 263 265 269 273 275 276 278 278 279 279 278 279 280 282 282 282 285 287 288
266 267 268 262 263 259 254 263 267 251 263 266 270 266 269 270 270 270 269 268 268 268 268 267 264 260 261 257 255 255 258 260 265 270 272 273 276 278 277 277 277 276 278 281 283 288 289 286 285
260 260 266 263 265 263 263 265 261 260 269 271 271 271 272 273 275 273 268 268 268 266 265 264 262 259 255 254 252 251 254 258 262 266 269 271 272 274 276 277 275 276 278 279 282 288 285 283 285
258 258 259 263 262 262 263 264 265 266 263 268 268 269 272 274 275 275 273 272 273 272 268 264 258 256 251 250 251 250 252 256 259 263 264 266 268 269 272 272 272 276 280 283 285 284 281 280 282
260 257 256 257 258 261 260 250 237 243 254 259 269 273 270 270 275 278 278 278 278 277 278 274 267 263 260 261 253 250 251 253 256 257 260 263 266 269 270 270 273 277 279 281 282 277 279 280 293
255 255 248 254 255 257 257 253 255 254 260 267 272 275 277 276 277 274 276 279 278 278 276 272 265 259 257 257 257 256 255 254 254 256 261 263 264 267 268 273 269 269 269 275 275 273 278 289 297